Terminal Aerodrome Forecast
Issued by NWS Louisville, KY

Home | Current Version | Previous Version | Text Only | Print | Product List | Glossary On
Versions: 1 2 3 4 5 6 7 8 9 10 11 12 13
000
FTUS43 KLMK 261700
TAFLEX
TAF
KLEX 261722Z 2618/2718 08004KT P6SM SCT040
     FM270700 VRB03KT 6SM BR FEW250
     FM271300 VRB04KT P6SM BKN040=

USA.gov is the U.S. government's official web portal to all federal, state and local government web resources and services.